Total_Precipitation_Accumulation
2.13 3.42 1.54 0.66 0.28 0.16 0.26 0.13 0.12 0.23 0.39 0.53 0.63 0.82 0.64 0.26 0.15 0.05 0.07 0.13 0.24 0.27 0.39 1.10 1.57 1.92 1.45 0.77 0.73 0.67 0.57 0.37 0.23 0.27 0.27 0.36 0.39 0.43 0.32 0.32 0.50 0.33 0.33 0.33
2.18 1.70 0.65 0.56 0.41 0.19 0.41 0.22 0.25 0.41 0.42 0.31 0.39 0.63 0.66 0.40 0.16 0.07 0.04 0.07 0.12 0.24 0.53 0.74 1.00 1.88 2.38 1.44 0.89 0.71 0.46 0.49 0.41 0.34 0.32 0.45 0.69 0.77 0.54 0.53 0.45 0.48 0.58 0.62
1.69 1.24 0.79 0.86 0.52 0.31 0.28 0.16 0.28 0.46 0.57 0.32 0.17 0.27 0.45 0.35 0.11 0.05 0.03 0.03 0.06 0.16 0.40 0.75 0.66 0.64 1.06 1.67 1.01 0.67 0.95 0.88 0.63 0.65 0.75 0.91 1.08 1.03 0.77 0.40 0.31 0.60 0.95 1.24
1.76 1.16 1.08 1.13 0.58 0.22 0.14 0.14 0.45 0.37 0.47 0.40 0.20 0.20 0.23 0.28 0.19 0.06 0.02 0.02 0.04 0.08 0.19 0.51 0.71 0.46 0.45 0.67 1.09 0.74 0.78 0.82 0.91 1.03 1.10 1.07 0.94 0.93 0.69 0.70 0.81 1.03 1.09 1.39
1.71 1.26 1.56 1.20 0.60 0.23 0.18 0.11 0.32 0.42 0.53 0.59 0.27 0.23 0.13 0.16 0.23 0.13 0.03 0.02 0.03 0.07 0.09 0.14 0.37 0.55 0.58 0.43 0.57 0.69 0.74 0.74 0.78 0.98 0.97 0.98 1.15 0.80 0.83 0.98 0.94 0.82 0.89 0.99
1.28 1.54 1.48 0.83 0.68 0.34 0.29 0.34 0.53 0.52 0.59 0.68 0.41 0.15 0.09 0.09 0.19 0.22 0.06 0.02 0.03 0.03 0.02 0.03 0.09 0.13 0.18 0.29 0.32 0.27 0.26 0.38 0.55 0.70 0.76 0.81 1.07 1.08 1.02 0.98 0.93 0.84 0.85 0.81
1.94 1.65 1.17 0.83 1.08 0.93 1.02 0.87 1.20 1.10 1.11 0.42 0.07 0.27 0.19 0.09 0.08 0.17 0.13 0.01 0.02 0.01 0.00 0.01 0.01 0.00 0.00 0.01 0.11 0.16 0.18 0.22 0.32 0.49 0.68 0.58 0.75 0.87 0.85 0.93 1.03 0.93 0.84 0.78
1.67 1.94 1.43 1.08 1.00 1.20 1.00 0.64 0.86 0.49 0.36 0.14 0.05 0.17 0.17 0.03 0.02 0.10 0.11 0.01 0.01 0.01 0.00 0.00 0.00 0.00 0.00 0.00 0.00 0.01 0.02 0.05 0.08 0.15 0.35 0.40 0.41 0.44 0.39 0.52 0.57 0.68 0.77 0.79
0.72 1.02 0.69 0.64 0.61 0.84 0.87 0.75 0.49 0.51 0.22 0.32 0.11 0.08 0.06 0.00 0.01 0.07 0.07 0.01 0.00 0.00 0.00 0.00 0.00 0.00 0.00 0.00 0.00 0.00 0.00 0.00 0.00 0.01 0.02 0.05 0.13 0.21 0.19 0.20 0.25 0.30 0.26 0.29
0.38 0.86 0.80 0.74 0.82 0.89 0.61 0.36 0.54 1.10 0.49 0.20 0.11 0.09 0.04 0.00 0.00 0.01 0.01 0.00 0.00 0.00 0.00 0.00 0.00 0.00 0.00 0.00 0.00 0.00 0.00 0.00 0.00 0.02 0.02 0.01 0.04 0.07 0.08 0.07 0.07 0.08 0.07 0.07
0.45 0.70 0.86 1.04 1.02 0.79 0.66 0.65 0.52 0.58 0.29 0.14 0.06 0.08 0.01 0.00 0.00 0.02 0.01 0.01 0.01 0.01 0.00 0.00 0.00 0.00 0.00 0.00 0.00 0.00 0.00 0.00 0.00 0.01 0.00 0.01 0.03 0.03 0.04 0.04 0.04 0.04 0.05 0.06
0.38 0.56 0.77 0.62 0.21 0.17 0.28 0.28 0.20 0.78 0.40 0.27 0.17 0.06 0.01 0.01 0.00 0.02 0.03 0.03 0.02 0.01 0.00 0.00 0.00 0.00 0.00 0.00 0.00 0.00 0.00 0.01 0.01 0.01 0.00 0.01 0.02 0.04 0.05 0.05 0.06 0.07 0.06 0.06
0.29 0.74 0.79 0.77 0.52 0.49 0.65 0.35 0.28 0.62 1.13 0.62 0.31 0.07 0.00 0.01 0.01 0.01 0.01 0.03 0.01 0.00 0.00 0.00 0.00 0.00 0.00 0.00 0.02 0.04 0.04 0.02 0.01 0.01 0.01 0.03 0.05 0.06 0.07 0.07 0.06 0.06 0.05 0.05
0.66 0.61 0.75 0.75 0.74 0.79 0.55 0.31 0.49 1.00 1.36 0.39 0.17 0.03 0.01 0.01 0.03 0.02 0.03 0.04 0.06 0.02 0.01 0.00 0.00 0.00 0.00 0.01 0.05 0.05 0.04 0.02 0.05 0.05 0.05 0.06 0.06 0.07 0.08 0.08 0.06 0.07 0.07 0.07
0.73 0.94 1.21 0.74 0.38 0.93 0.53 0.29 0.37 0.87 0.61 0.58 0.18 0.07 0.02 0.01 0.04 0.10 0.09 0.11 0.06 0.03 0.01 0.00 0.01 0.01 0.01 0.01 0.03 0.04 0.07 0.08 0.08 0.11 0.11 0.09 0.07 0.05 0.05 0.06 0.05 0.05 0.06 0.07
0.47 0.79 0.96 0.56 0.17 0.33 0.34 0.15 0.20 0.19 0.31 0.41 0.17 0.22 0.05 0.02 0.12 0.29 0.17 0.22 0.11 0.06 0.02 0.01 0.01 0.00 0.00 0.00 0.01 0.02 0.06 0.10 0.16 0.15 0.10 0.07 0.06 0.06 0.07 0.06 0.06 0.08 0.09 0.11
0.28 0.45 0.78 0.63 0.37 0.24 0.42 0.26 0.15 0.14 0.20 0.33 0.31 0.19 0.07 0.07 0.29 0.31 0.31 0.30 0.09 0.03 0.01 0.00 0.00 0.00 0.00 0.00 0.01 0.01 0.03 0.06 0.07 0.06 0.04 0.04 0.07 0.10 0.09 0.07 0.05 0.09 0.23 0.40
0.08 0.26 0.46 0.49 0.49 0.51 0.43 0.25 0.11 0.13 0.16 0.21 0.24 0.14 0.04 0.16 0.20 0.13 0.30 0.25 0.11 0.01 0.00 0.00 0.00 0.00 0.00 0.00 0.00 0.01 0.02 0.07 0.16 0.23 0.24 0.20 0.38 0.53 0.37 0.44 0.56 0.63 0.43 0.44
0.03 0.17 0.28 0.18 0.21 0.21 0.08 0.13 0.19 0.13 0.12 0.09 0.10 0.15 0.11 0.08 0.12 0.19 0.13 0.03 0.02 0.02 0.01 0.00 0.00 0.00 0.00 0.00 0.00 0.01 0.02 0.04 0.15 0.33 0.58 0.61 0.65 0.67 0.73 1.09 1.03 1.18 1.08 0.85
0.03 0.09 0.31 0.12 0.11 0.00 0.02 0.05 0.03 0.01 0.05 0.01 0.02 0.04 0.05 0.09 0.30 0.28 0.09 0.02 0.01 0.01 0.01 0.01 0.00 0.00 0.00 0.00 0.03 0.05 0.04 0.08 0.18 0.26 0.22 0.62 0.78 0.63 0.58 0.63 0.64 0.72 0.50 0.52
0.12 0.17 0.26 0.18 0.19 0.00 0.00 0.00 0.00 0.05 0.04 0.00 0.00 0.01 0.03 0.07 0.08 0.08 0.08 0.07 0.03 0.02 0.01 0.01 0.02 0.02 0.04 0.07 0.13 0.25 0.23 0.41 0.54 0.84 0.62 0.66 0.80 0.64 0.47 0.54 0.36 0.35 0.38 0.30
0.03 0.05 0.08 0.12 0.13 0.01 0.00 0.00 0.01 0.02 0.00 0.00 0.00 0.01 0.08 0.08 0.07 0.07 0.01 0.01 0.08 0.17 0.23 0.25 0.18 0.14 0.18 0.22 0.37 0.73 0.66 0.66 0.70 0.64 0.69 0.44 0.40 0.30 0.22 0.15 0.14 0.10 0.05 0.03
0.00 0.00 0.00 0.00 0.00 0.00 0.00 0.00 0.00 0.00 0.00 0.00 0.00 0.01 0.05 0.07 0.18 0.11 0.01 0.01 0.01 0.07 0.28 0.54 0.49 0.45 0.55 0.41 0.44 0.59 0.47 0.29 0.15 0.17 0.12 0.05 0.02 0.02 0.01 0.01 0.00 0.00 0.00 0.00
0.00 0.00 0.00 0.00 0.00 0.00 0.00 0.00 0.00 0.00 0.00 0.00 0.00 0.00 0.00 0.00 0.00 0.00 0.01 0.01 0.02 0.01 0.01 0.02 0.02 0.06 0.15 0.15 0.14 0.18 0.12 0.06 0.02 0.02 0.01 0.01 0.01 0.02 0.01 0.01 0.00 0.00 0.00 0.00
0.01 0.00 0.00 0.00 0.00 0.00 0.00 0.00 0.00 0.00 0.00 0.00 0.00 0.00 0.01 0.01 0.01 0.01 0.03 0.04 0.04 0.05 0.04 0.04 0.04 0.04 0.03 0.01 0.01 0.01 0.01 0.03 0.05 0.06 0.06 0.07 0.09 0.09 0.06 0.04 0.04 0.02 0.01 0.02
0.00 0.00 0.01 0.01 0.00 0.02 0.00 0.00 0.00 0.00 0.00 0.00 0.00 0.01 0.01 0.03 0.04 0.03 0.06 0.08 0.09 0.08 0.07 0.06 0.07 0.07 0.11 0.13 0.11 0.08 0.07 0.08 0.08 0.09 0.08 0.12 0.16 0.22 0.29 0.35 0.29 0.22 0.16 0.12